Regional Weather Roundup
Issued by NWS

Home | Current Version | Previous Version | Graphics & Text | Print | Product List | Glossary On
Versions: 1 2 3 4 5 6 7 8 9 10 11 12 13 14 15 16 17 18 19 20 21 22 23 24 25 26 27 28 29 30 31 32 33 34 35 36 37 38 39 40 41 42 43 44 45 46 47 48 49 50
000
ASUS43 KOAX 161302
RWRNE

WEATHER ROUNDUP FOR NEBRASKA
NATIONAL WEATHER SERVICE OMAHA NE
700 AM CST SAT DEC 16 2017

NOTES: SATELLITE DATA IS BEING USED TO AUGMENT CLOUD COVER ABOVE
       12000 FEET.
       "FAIR" INDICATES FEW OR NO CLOUDS BELOW 12,000 FEET WITH NO
       SIGNIFICANT WEATHER AND/OR OBSTRUCTIONS TO VISIBILITY.


NEZ001>004-019>022-054>056-161400-
NEBRASKA PANHANDLE

CITY           SKY/WX    TMP DP  RH WIND       PRES   REMARKS
SCOTTSBLUFF    CLOUDY    37  11  34 N8        29.81R WCI  31
ALLIANCE       CLOUDY    26  13  57 NW7       29.80R WCI  18
CHADRON        CLOUDY    29  18  63 W6        29.83R WCI  23
GORDON         FAIR      29  22  77 SW3       29.81R
KIMBALL        CLOUDY    35   8  32 NW9       29.79S WCI  28
SIDNEY         CLOUDY    28   7  41 NW13      29.77R WCI  17
$$

NEZ057>060-069>072-079>082-161400-
SOUTHWEST NEBRASKA

CITY           SKY/WX    TMP DP  RH WIND       PRES   REMARKS
NORTH PLATTE   CLOUDY    27  21  78 CALM      29.77R
IMPERIAL       CLOUDY    30  14  51 NW3       29.76R
LEXINGTON      PTCLDY    31  20  62 NW7       29.76R WCI  24
MCCOOK         CLOUDY    25  12  58 W10       29.74S WCI  15
OGALLALA       CLOUDY    26  17  68 W7        29.79R WCI  18
$$

NEZ005>010-023>029-035>040-094-161400-
NORTH CENTRAL NEBRASKA

CITY           SKY/WX    TMP DP  RH WIND       PRES   REMARKS
VALENTINE      CLOUDY    32  25  75 W7        29.79R WCI  26
AINSWORTH      CLOUDY    33  27  78 W7        29.77R WCI  26
BROKEN BOW     CLOUDY    38  21  50 N5        29.76R WCI  34
O`NEILL        CLOUDY    32  26  76 W3        29.77R
ORD            CLOUDY    29  23  78 NW6       29.76R WCI  23
THEDFORD       CLOUDY    33  23  65 W6        29.80R WCI  28
$$

NEZ041-046>049-061>064-073>077-083>087-161400-
SOUTH CENTRAL NEBRASKA

CITY           SKY/WX    TMP DP  RH WIND       PRES   REMARKS
GRAND ISLAND   PTCLDY    29  22  75 W3        29.76R
AURORA         CLEAR     24  18  78 W3        29.75R
HASTINGS       PTCLDY    24  15  68 NW3       29.75R
HEBRON         CLOUDY    31  21  65 CALM      29.77R
HOLDREGE       CLOUDY    28  15  57 NW7       29.75R WCI  21
KEARNEY        CLOUDY    28  19  69 NW7       29.76R WCI  21
$$

NEZ011>018-030>034-042>045-161400-
NORTHEAST NEBRASKA

CITY           SKY/WX    TMP DP  RH WIND       PRES   REMARKS
NORFOLK        CLOUDY    30  23  75 W7        29.74R WCI  23
ALBION         CLOUDY    31  24  77 NW12      29.76R WCI  21
BLAIR          CLOUDY    33  22  63 SW3       29.75R
COLUMBUS       PTCLDY    26  21  81 CALM      29.77R
FREMONT        CLOUDY    29  20  71 CALM      29.77R
TEKAMAH        CLOUDY    24  16  71 S5        29.76R WCI  18
WAYNE          CLOUDY    24  22  89 CALM      29.74S
$$

NEZ050>053-065>068-078-088>093-161400-
SOUTHEAST NEBRASKA

CITY           SKY/WX    TMP DP  RH WIND       PRES   REMARKS
LINCOLN        CLOUDY    29  19  66 CALM      29.79R
OMAHA EPPLEY   CLOUDY    32  20  61 SE5       29.77R WCI  27
BEATRICE       CLOUDY    30  22  74 S5        29.77R WCI  25
FALLS CITY     CLOUDY    30  22  72 SE3       29.80R
NEBRASKA CITY  CLOUDY    32  23  70 S5        29.78R WCI  27
PLATTSMOUTH    CLOUDY    33  23  65 SW6       29.77R WCI  28
$$

NEZ044-045-051>053-067-161400-
OMAHA AREA

CITY           SKY/WX    TMP DP  RH WIND       PRES   REMARKS
OMAHA EPPLEY   CLOUDY    32  20  61 SE5       29.77R WCI  27
BLAIR          CLOUDY    33  22  63 SW3       29.75R
FREMONT        CLOUDY    29  20  71 CALM      29.77R
MILLARD        PTCLDY    31  22  68 CALM      29.76S
OFFUTT AFB     CLOUDY    24  19  79 S3        29.76R
PLATTSMOUTH    CLOUDY    33  23  65 SW6       29.77R WCI  28
WAHOO          FAIR      30  19  62 CALM      29.76R
$$




USA.gov is the U.S. government's official web portal to all federal, state and local government web resources and services.